Quarantaine domeinnamen

Lijst van domeinnamen die binnekort beschikbaar komen. Deze domeinnamen hebben nu nog de status quarantaine.

DomeinnaamDAPABL Datum uit quarantaine
cmsdesigners.nl 13 1 0 24-03-2017
slimonlineondernemen.nl 7 1 4 24-03-2017
tourettenet.nl 23 30 2 24-03-2017
hond-en-baas.nl 14 1 6 24-03-2017
homanpigeons.nl 20 24 6 24-03-2017
archadis.nl 15 1 3 24-03-2017
saencoaching.nl 7 23 2 24-03-2017
compatibletoners.nl 15 20 0 24-03-2017
meezhz.nl 9 20 3 24-03-2017
poststar.nl 10 1 5 24-03-2017
autodaamen.nl 15 23 10 24-03-2017
wpmcdn.nl 6 1 1 24-03-2017
fietskleding-online.nl 6 17 1 25-03-2017
dogsoncanvas.nl 17 1 12 25-03-2017
weilersadvocaten.nl 12 1 0 25-03-2017
kuanyin.nl 12 20 3 25-03-2017
goedkoopipadkopen.nl 7 18 1 25-03-2017
eyebrowcompany.nl 10 1 3 25-03-2017
schoorlinoudeansichten.nl 13 1 1 25-03-2017
gratissexonline.nl 7 15 2 25-03-2017
webcamsexstart.nl 7 1 3 25-03-2017
antibjz.nl 10 1 3 25-03-2017
speelkantine.nl 11 1 0 25-03-2017
coasterclub.nl 16 1 6 25-03-2017
maturesexcam.nl 14 1 10 25-03-2017
muziekoordeel.nl 1 1 0 26-03-2017
molenentreprise.nl 11 24 0 26-03-2017
sirfashion.nl 8 17 5 26-03-2017
golfclub-degroenester.nl 12 1 2 26-03-2017
van-maanen-meubelen.nl 9 1 2 26-03-2017
cafedebrink5.nl 10 1 10 26-03-2017
cafe-stuupke.nl 11 21 7 26-03-2017
bataviasailingcenter.nl 21 33 2 26-03-2017
strijkservice-alphen.nl 12 22 0 26-03-2017
rijscholenzuid-holland.nl 1 1 2 26-03-2017
dartbordophangen.nl 11 25 7 26-03-2017
jan-art.nl 7 1 1 26-03-2017
multicartografie.nl 19 25 12 26-03-2017
artiesten-gala.nl 1 1 1 26-03-2017
supclubfcz.nl 18 1 7 26-03-2017
palsuitvaartverzorging.nl 1 1 0 26-03-2017
cattube.nl 9 1 2 26-03-2017
bizzincontrol.nl 13 1 0 27-03-2017
restauratie-restaureren.nl 9 24 0 27-03-2017
helinafinnishdesign.nl 8 15 8 27-03-2017
beautifulwomen.nl 12 22 11 27-03-2017
lovechats.nl 6 1 1 27-03-2017
wbroecke.nl 21 26 8 27-03-2017
heksentempel.nl 20 23 17 27-03-2017
actiefondsmijnenruimen.nl 19 1 1 27-03-2017
watkijkjenou.nl 12 22 10 27-03-2017
7x24webdesign.nl 19 1 4 27-03-2017
gallerienieuwendam.nl 9 1 1 27-03-2017
dewaarheidoverluizen.nl 6 1 0 27-03-2017
ruralenergy.nl 23 30 0 27-03-2017
tienergeil.nl 8 22 6 27-03-2017
studio-diane.nl 20 1 13 27-03-2017
selkirk-rex.nl 12 18 4 28-03-2017
mezenonderzoek-op-vlieland.nl 11 19 5 28-03-2017
xxxwebcamsexxx.nl 9 1 1 28-03-2017
absoluut-bloemen.nl 1 1 2 28-03-2017
alleboekhoudpakketten.nl 15 1 6 28-03-2017
jeugdzoektwerk.nl 7 21 3 28-03-2017
zomerakties.nl 13 19 6 28-03-2017
spaar-weetjes.nl 17 1 12 29-03-2017
ballonleur.nl 12 1 6 29-03-2017
bakenpurmerend1.nl 16 14 1 29-03-2017
hetviaduct.nl 12 22 2 29-03-2017
webnaut.nl 7 17 0 29-03-2017
malewebcam.nl 19 22 9 29-03-2017
webcamstuds.nl 19 21 8 29-03-2017
kennelvanstoopy.nl 19 25 6 29-03-2017
ps3-controller.nl 1 1 0 30-03-2017
appelgames.nl 19 24 15 30-03-2017
hotquiz.nl 17 1 29 30-03-2017
centenknaller.nl 11 23 10 30-03-2017
finlog.nl 20 1 14 30-03-2017
adieu-afscheidskleden.nl 7 15 0 30-03-2017
leesservice.nl 1 1 1 30-03-2017
laserforce.nl 1 1 0 30-03-2017
caritasenco.nl 18 31 2 30-03-2017
miniatuurruilbeurs.nl 6 1 2 30-03-2017
cindrillon.nl 13 1 4 30-03-2017
gay-camz.nl 21 1 17 30-03-2017
sex-paleis.nl 18 1 18 30-03-2017
rietenprieel.nl 1 1 2 30-03-2017
servz.nl 19 1 7 31-03-2017
xboxlive48.nl 1 1 0 31-03-2017
smoothieguys.nl 8 1 0 31-03-2017
ad-entertainment.nl 15 23 5 31-03-2017
verjaardag-service.nl 6 1 3 31-03-2017
mobileparty.nl 9 21 4 31-03-2017
swingersdatingnederland.nl 10 19 2 31-03-2017
bertenz-lego.nl 8 17 0 31-03-2017
bhswebdesign.nl 6 17 1 31-03-2017
vrachtwagenspelletjes.nl 11 1 2 31-03-2017
aatstuurman.nl 6 1 0 31-03-2017
aldunya.nl 1 1 0 31-03-2017
novio.nl 30 1 20 01-04-2017
regiotaxi-kan.nl 16 25 5 01-04-2017